Notices

What's New in latest Release from April 7th, 2021:

- Updated Glossary, including Speed of Maximum Gust, and Total Hourly Precipitation

- Updated national and regional climate services offices contacts and prices information

- Addition of station inventory lists for 1981-2010, 1971-2000, and 1961-1990 Normals.

If you haven't already, please take our survey and provide feedback about our website: https://eccc.sondage-survey.ca/f/LanguageSelection.aspx?s=442ca660-fcf1-47c0-95a9-59707d6fd709

Hourly Data Report for February 28, 2004

SHERBROOKE A
QUEBEC

45°26'00.000" N
71°41'00.000" W
241.40 m
7028124
71610
YSC

Download Data

Hourly Data (February 2004)
Hourly Data Report for February 28, 2004
TIME
LST
Temp Definition
°C
Dew Point Definition
°C
Rel Hum Definition
%
Precip. Amount Definition
mm

Wind Dir Definition
10's deg

Wind Spd Definition
km/h
Visibility Definition
km
Stn Press Definition
kPa
Hmdx Definition


Wind Chill Definition


Weather Definition


00:00 -15.2 -22.8 52   23 7 15.0 99.57   -20  
01:00 -17.4 -24.3 55     0 15.0 99.57      
02:00 -18.8 -25.4 56     0 15.0 99.54      
03:00 -18.6 -25.2 56   9 4 15.0 99.49   -22  
04:00 -18.0 -24.7 56   9 7 15.0 99.49   -23  
05:00 -16.2 -23.3 54   9 4 15.0 99.48   -19  
06:00 -14.7 -22.3 52   8 4 15.0 99.50   -18  
07:00 -14.1 -21.6 53   9 4 15.0 99.47   -17  
08:00 -11.9 -19.9 51   7 4 24.1 99.51   -14 Mostly Cloudy
09:00 -9.3 -18.8 46     0 24.1 99.48     Mostly Cloudy
10:00 -4.9 -16.4 40   24 7 24.1 99.44   -8 Mostly Cloudy
11:00 -2.8 -14.3 41   25 11 24.1 99.40   -7 Mainly Clear
12:00 -0.4 -13.8 36   26 9 24.1 99.34   -4 Mainly Clear
13:00 0.2 -13.5 35   30 13 24.1 99.26     Mainly Clear
14:00 1.1 -13.1 34   30 15 24.1 99.24     Mainly Clear
15:00 1.6 -11.8 36   30 13 24.1 99.23     Mostly Cloudy
16:00 1.1 -11.2 39   28 15 24.1 99.22     Mainly Clear
17:00 -0.4 -11.8 42   29 6 24.1 99.22   -2 Mostly Cloudy
18:00 -4.3 -12.3 54   26 4 15.0 99.23   -6  
19:00 -5.3 -12.3 58     0 15.0 99.26      
20:00 -7.1 -13.4 61   18 6 15.0 99.27   -10  
21:00 -8.4 -14.4 62   8 4 15.0 99.23   -11  
22:00 -8.7 -13.4 69   9 6 15.0 99.22   -12  
23:00 -9.7 -14.5 68     0 15.0 99.21      

Notes on Data Quality.

Legend

  • E = Estimated
  • M = Missing
  • NA = Not Available*
  • [empty] = Indicates an unobserved value
Date modified: